sat.trackr.live / text

‹ back to catalog

STARLINK-30404

NORAD 57853 · 2023-141P

PAYLOAD ACTIVE UNKNOWN

§ Identity

Operator
Country
US
Launch date
2023-09-12
Launch site
AFWTR
Launch vehicle
Mass (kg)
RCS (m²)

Purposes: comms

External: N2YO · Heavens-Above · Gunter

§ Orbital elements

Epoch: 2026-05-25T02:38:39.315264Z

Period
94.11 min
Inclination
53.1609°
Eccentricity
0.0001102
Mean motion
15.30189653 rev/d
Perigee alt
474.5 km
Apogee alt
476.0 km
Semi-major
6,853.4 km
B*
1.4395e-5
RAAN
288.7789°
Arg perigee
98.1432°
Mean anomaly
261.9694°
Rev number
15,203

§ Raw data

STARLINK-304041 57853U 23141P   26145.11017726  .00000067  00000+0  14395-4 0  99902 57853  53.1609 288.7789 0001102  98.1432 261.9694 15.30189653152033

JSON: /api/v1/satellites/57853 · /tle

For live sub-satellite position, see the globe view (requires WebGL).

§ Visibility from observer

Set your observer location to see the next 7 days of passes ≥ 10°. The values pass through the URL so the page stays shareable.

No JS? Fill the form by hand. The geolocation button needs JavaScript.